Regional Weather Roundup
Issued by NWS

Home | Current Version | Previous Version | Text Only | Print | Product List | Glossary On
Versions: 1 2 3 4 5 6 7 8 9 10 11 12 13 14 15 16 17 18 19 20 21 22 23 24 25 26 27 28 29 30 31 32 33 34 35 36 37 38 39 40 41 42 43 44 45 46 47 48 49 50
968
ASUS43 KFSD 060410
RWRSD

WEATHER ROUNDUP FOR SOUTH DAKOTA
NATIONAL WEATHER SERVICE SIOUX FALLS SD
1000 PM CST FRI FEB 05 2016

NOTE: "FAIR" INDICATES FEW OR NO CLOUDS BELOW 12,000 FEET WITH NO
SIGNIFICANT WEATHER AND/OR OBSTRUCTIONS TO VISIBILITY.


SDZ001>005-009-010-012>017-060500-
NORTHWEST AND NORTH CENTRAL SOUTH DAKOTA

CITY           SKY/WX    TMP DP  RH WIND       PRES   REMARKS
BUFFALO          N/A     29  21  72 SW10      30.01F WCI  20
FAITH            N/A     29  20  69 SW12      30.11S WCI  19
MOBRIDGE       CLEAR     29  22  75 SE5       30.09S WCI  24
$$

SDZ012>016-024>037-041>051-057-063-072>074-060500-
SOUTHWEST AND SOUTH CENTRAL SOUTH DAKOTA

CITY           SKY/WX    TMP DP  RH WIND       PRES   REMARKS
RAPID CTY ARPT CLEAR     22  16  78 CALM      30.15F
PIERRE         CLEAR     30  24  78 SW8       30.15F WCI  22
CUSTER         CLOUDY    25  11  55 NW13G18   30.13S WCI  14
ELLSWORTH AFB  CLEAR     27  17  67 SW6       30.14S WCI  20
PHILIP         CLEAR     27  22  81 NW6       30.17F WCI  20
PINE RIDGE     CLEAR     26  17  68 W6        30.21S WCI  19
SPEARFISH      FAIR      34  16  47 SW24      30.11F WCI  21
WINNER         FAIR      29  21  72 SW8       30.19F WCI  21
$$

SDZ004>011-016>023-039-040-060500-
NORTHEAST SOUTH DAKOTA

CITY           SKY/WX    TMP DP  RH WIND       PRES   REMARKS
ABERDEEN       CLEAR     21  16  81 SW6       30.15S WCI  13
WATERTOWN      FOG       18  16  92 S5        30.14S VSB 1/4 WCI  11
BROOKINGS      FOG       22  21  96 CALM      30.17S VSB 1/4
SISSETON         N/A     18  15  88 SW3       30.14F
$$

SDZ017-020-022-023-036>040-048>070-060500-
SOUTHEAST SOUTH DAKOTA

CITY           SKY/WX    TMP DP  RH WIND       PRES   REMARKS
SIOUX FALLS    CLOUDY    26  24  92 CALM      30.20S FOG
HURON          CLEAR     26  21  81 SW7       30.18F WCI  18
CHAMBERLAIN    CLEAR     25  24  93 SW3       30.19S
MITCHELL       CLEAR     27  25  92 SW7       30.22R WCI  19
YANKTON        CLEAR     28  25  86 W6        30.24R WCI  22
$$

ABBREVIATIONS USED IN REMARKS
   TC - TEMPERATURE IN CELSIUS
  WCI - WIND CHILL INDEX
   HX - HEAT INDEX
  VSB - VISIBILITY





USA.gov is the U.S. government's official web portal to all federal, state and local government web resources and services.